Погода в Спокане

США     47°40′24″N   117°23′47″W
темп.,
°C
ветер,
м/с
пор.,
м/с
влажн.,
%
обл.,
%
осадки,
мм/ч
давл.,
гПа
погр.,
м
7 июля, чт
чт723:00+20зюз12552 0.0 101068
02:00+18вюв00635 0.0 101112
05:00+16всв017090 0.0 101314
08:00+19ююв116130 0.1 1013357
11:00+24зюз224478 0.1 10131379
14:00+26зюз4442100 0.0 10122196
17:00+25з3443100 0.0 10111410
20:00+23з23492 0.0 1011186
8 июля, пт
пт823:00+20юз11583 0.0 101312
02:00+18вюв11685 0.0 101424
05:00+16юв12791 0.2 101574
08:00+19ю34525 0.0 1016544
11:00+24ююз35367 0.0 10151403
14:00+27юз57286 0.0 10131897
17:00+27зюз58255 0.0 10122032
20:00+24юз373336 0.0 1013402
9 июля, сб
сб923:00+20ю22385 0.0 101442
02:00+18ююв23470 0.0 101564
05:00+16ююв24600 0.0 1016182
08:00+19ююз36460 0.0 1017562
11:00+24ююз46330 0.0 10161584
14:00+27юз682579 0.0 10142173
17:00+25зюз6826100 0.0 10141714
20:00+23юз48315 0.0 1013809
10 июля, вс
вс1023:00+19юз26395 0.0 1015198
02:00+16ю4105099 0.0 1016419
05:00+14ююз3960100 0.0 1018370
08:00+17ююз4654100 0.0 1020729
11:00+21юз444089 0.0 10201440
14:00+24юз453368 0.0 10181988
17:00+25зюз5628100 0.0 10182200
20:00+23ююз223657 0.0 101854
11 июля, пн
пн1123:00+19ююз22465 0.0 101949
02:00+17вюв11510 0.0 102023
05:00+15вюв11560 0.0 102125
08:00+19в11460 0.0 1022357
11:00+25юз12330 0.0 1020938
14:00+29зюз22270 0.0 10181686
17:00+30зюз23250 0.0 10161732
20:00+27ююз11320 0.0 101526